Location: Unspecified
(47.9110°N, 14.3980°E)
Time: 14:44:48
(UTC+00:00)

BREEZE-M DEB (TANK) - Pass Details

Date: 06 August 2020
Orbit: 433 x 13232 km, 46.0° (Epoch: 18 September)

Event Time Altitude Azimuth Distance (km) Brightness Sun altitude
Rises 23:11:56 0° 279° (W) 6,711 8.4 -25.7°
Reaches altitude 10° 23:17:59 10° 278° (W) 4,192 7.3 -25.7°
Enters shadow 23:25:03 47° 249° (WSW) 1,140 4.1 -25.6°
